Location: Clarks Summit,Pa.
(41.5000°N, 75.6000°W)
Time: 03:21:27
(UTC-05:00)

Envisat - Pass Details

Date: 06 December 2021
Orbit: 764 x 766 km, 98.2° (Epoch: 18 January)

Event Time Altitude Azimuth Distance (km) Brightness Sun altitude
Rises 17:13:34 0° 201° (SSW) 3,218 7.0 -7.7°
Reaches altitude 10° 17:16:21 10° 217° (SW) 2,297 6.5 -8.2°
Maximum altitude 17:20:14 22° 267° (W) 1,629 5.7 -8.9°
Drops below altitude 10° 17:24:09 10° 317° (NW) 2,310 5.8 -9.5°
Sets 17:26:58 0° 333° (NNW) 3,242 6.3 -10.0°
